SCP
0 0 0 0 0 0 0 0 -0 0 0 0 0 0 0 0 0 0 0 -0 -0 -0 -0 -0 -0 0 0 0 0 0 0 0 0 0 0 0 0 0 0 0 0 0 0 0 0 0 0
0 0 0 0 0 0 0 0 -0 0 -0 0 0 0 0 0 0 0 0 -0 -0 -0 0 0 0 0 0 0 0 0 0 0 0 0 0 0 0 0 0 0 0 0 0 0 0 0 0
0 0 0 0 0 0 0 0 0 0 0 0 0 0 0 0 0 0 0 0 -0 0 0 0 0 0 0 0 0 0 0 0 0 0 0 0 0 0 0 0 0 0 0 0 0 0 0
0 0 0 0 0 0 0 0 0 0 0 0 0 0 0 0 0 0 0 0 -0 0 0 0 0 0 0 0 0 0 0 0 0 0 0 0 0 0 0 0 0 0 0 0 0 0 0
0 0 0 0 0 0 0 0 0 0 0 0 0 0 0 0 0 0 0 0 0 0 0 0 0 0 0 0 0 0 0 0 0 0 0 0 0 0 0 0 0 0 0 0 0 0 0
0 0 0 0 0 0 0 0 0 0 0 0 0 0 0 0 0 0 0 0 0 0 0 0 0 0 0 0 0 0 0 0 0 0 0 0 0 0 0 0 0 0 0 0 0 0 0
0 0 0 0 0 0 0 0 0 0 0 0 0 0 0 0 0 0 0 0 0 0 0 0 0 0 0 0 0 0 0 0 0 0 0 0 0 0 0 0 0 0 0 0 0 0 0
0 0 0 0 0 0 0 0 0 0 0 0 0 0 0 0 0 0 0 0 0 0 0 0 0 0 0 0 0 0 0 0 0 0 0 0 0 0 0 0 0 0 0 0 0 0 0
0 0 0 0 0 0 0 0 0 0 0 0 0 0 0 0 0 0 0 0 0 0 0 0 0 0 0 0 0 0 0 0 0 0 0 0 0 0 0 0 0 0 0 0 0 0 0
0 0 0 0 0 0 0 0 0 0 0 0 0 0 0 0 0 0 0 0 0 0 0 0 0 0 0 0 0 0 0 0 0 0 0 0 0 0 0 0 0 0 0 0 0 0 0
0 0 0 0 0 0 0 0 0 0 0 0 0 0 0 0 0 0 0 0 0 0 0 0 0 0 0 0 0 0 0 0 0 0 0 0 0 0 0 0 0 0 0 0 0 0 0
0 0 0 0 0 0 0 0 0 0 0 0 0 0 0 0 0 0 0 0 0 0 0 0 0 0 0 0 0 0 0 0 0 0 0 0 0 0 0 0 0 0 0 0 0 0 0
0 0 0 0 0 0 0 0 0 0 0 0 0 0 0 0 0 0 0 0 0 0 0 0 0 0 0 0 0 0 0 0 0 0 0 0 0 0 0 0 0 0 0 0 0 0 0
0 0 0 0 0 0 0 0 0 0 0 0 0 0 0 0 0 0 0 0 0 0 0 0 0 0 0 0 0 0 0 0 0 0 0 0 0 0 0 0 0 0 0 0 0 0 0
0 0 0 0 0 0 0 0 0 0 0 0 0 0 0 0 0 0 0 0 0 0 0 0 0 0 0 0 0 0 0 0 0 0 0 0 0 0 0 0 0 0 0 0 0 0 0
0 0 0 0 0 0 0 0 0 0 0 0 0 0 0 0 0 0 0 0 0 0 0 0 0 0 0 0 0 0 0 0 0 0 0 0 0 0 0 0 0 0 0 0 0 0 0
0 0 0 0 0 0 0 0 0 0 0 0 0 0 0 0 0 0 0 0 0 0 0 0 0 0 0 0 0 0 0 0 0 0 0 0 0 0 0 0 0 0 0 0 0 0 0
0 0 0 0 0 0 0 0 0 0 0 0 0 0 0 0 0 0 0 0 0 0 0 0 0 0 0 0 0 0 0 0 0 0 0 0 0 0 0 0 0 0 0 0 0 0 0
0 0 0 0 0 0 0 0 0 0 0 0 0 0 0 0 0 0 0 0 0 0 0 0 0 0 0 0 0 0 0 0 0 0 0 0 0 0 0 0 0 0 0 0 0 0 0
0 0 0 0 0 0 0 0 0 0 0 0 0 0 0 0 0 0 0 0 0 0 0 0 0 0 0 0 0 0 0 0 0 0 0 0 0 0 0 0 0 0 0 0 0 0 0
0 0 0 0 0 0 0 0 0 0 0 0 0 0 0 0 0 0 0 0 0 0 0 0 0 0 0 0 0 0 0 0 0 0 0 0 0 0 0 0 0 0 0 0 0 0 0
0 0 0 0 0 0 0 0 0 0 0 0 0 0 0 0 0 0 0 0 0 0 0 0 0 0 0 0 0 0 0 0 0 0 0 0 0 0 0 0 0 0 0 0 0 0 0
0 0 0 0 0 0 0 0 0 0 0 0 0 0 0 0 0 0 0 0 0 0 0 0 0 0 0 0 0 0 0 0 0 0 0 0 0 0 0 0 0 0 0 0 0 0 0
0 0 -0 0 0 0 0 0 0 0 0 0 0 0 0 0 0 0 0 0 0 0 0 0 0 0 0 0 0 0 0 0 0 0 0 0 0 0 0 0 0 0 0 0 0 0 0
0 0 0 0 0 0 0 0 0 0 0 0 0 0 0 0 0 0 0 0 0 0 0 0 0 0 0 0 0 0 0 0 0 0 0 0 0 0 0 0 0 0 0 0 0 0 0
0 0 0 0 0 0 0 0 0 0 0 0 0 0 0 0 0 0 0 0 0 0 0 0 0 0 0 0 0 0 0 0 0 0 0 0 0 0 0 0 0 0 0 0 0 0 0
0 0 0 0 0 0 0 0 0 0 0 0 0 0 0 0 0 0 0 0 0 0 0 0 0 0 0 0 0 0 0 0 0 0 0 0 0 0 0 0 0 0 0 0 0 0 0
0 0 0 0 0 0 0 0 0 0 0 0 0 0 0 0 0 0 0 0 0 0 0 0 0 0 0 0 0 0 0 0 0 0 0 0 0 0 0 0 0 0 0 0 0 0 0
0 0 0 0 0 0 0 0 0 0 0 0 0 0 0 0 0 0 0 0 0 0 0 0 0 0 0 0 0 0 0 0 0 0 0 0 0 0 0 0 0 0 0 0 0 0 0
Wind_Speed_500mb
32 27 23 17 16 14 8 4 4 3 3 3 3 3 5 4 4 3 4 5 6 6 7 7 7 13 9 11 10 7 5 4 5 10 13 14 17 8 7 7 7 2 10 13 12 16 13
36 32 24 19 19 15 11 8 6 4 2 2 3 2 2 2 2 2 4 5 5 4 4 7 8 8 8 8 7 5 4 3 5 8 6 6 7 9 7 6 6 7 15 27 19 19 10
40 38 31 25 24 21 16 13 11 8 6 4 3 2 1 2 0 1 3 4 4 3 4 8 10 10 9 10 10 6 6 7 7 3 6 7 10 6 4 4 6 8 9 14 17 18 6
40 41 34 29 27 26 22 17 13 11 9 6 4 3 2 2 1 1 1 1 2 4 7 9 11 4 9 8 7 6 8 8 8 8 7 8 8 8 5 5 6 5 6 10 10 17 4
38 43 39 35 31 31 26 20 17 15 11 8 6 5 3 3 3 3 2 3 4 6 7 9 9 8 7 6 3 6 3 6 10 10 11 10 5 6 5 6 9 9 3 4 10 1 5
41 41 40 37 31 36 32 26 23 19 15 11 9 8 6 4 3 3 4 5 5 7 10 11 13 5 8 3 3 7 8 7 10 11 10 9 6 6 8 9 3 2 5 9 8 7 6
48 46 44 40 39 39 39 31 26 22 19 16 13 11 8 7 6 6 8 9 5 6 6 9 8 14 10 9 6 6 8 12 10 6 5 8 11 5 6 5 5 3 3 6 11 16 10
54 52 50 45 45 43 41 37 33 29 26 20 17 15 13 11 10 10 11 5 4 8 13 10 13 14 12 8 5 8 5 6 4 5 4 10 5 1 0 6 9 7 7 11 14 9 13
60 59 56 54 51 47 43 40 36 33 29 25 21 18 15 13 11 11 12 6 7 12 7 4 10 8 8 8 7 4 3 3 5 3 5 7 2 6 6 6 7 6 6 9 10 11 10
66 66 62 60 59 55 48 42 39 37 34 29 27 23 20 16 12 14 11 11 14 12 7 2 3 2 7 11 5 2 5 4 2 3 4 3 5 5 7 3 2 4 8 8 11 12 3
75 72 72 67 65 64 59 45 39 43 41 35 31 26 26 26 12 19 10 15 16 7 6 6 5 6 9 6 13 7 7 4 4 2 8 4 5 6 4 5 4 4 6 8 5 4 8
89 80 78 75 72 68 66 53 45 43 47 40 35 30 29 28 18 15 17 20 17 11 11 3 7 6 5 2 4 7 5 4 5 6 3 5 6 5 2 4 4 7 6 10 2 4 6
103 94 85 81 76 75 70 61 51 47 49 41 37 36 35 32 22 22 25 22 10 7 7 6 7 9 5 6 5 5 6 1 6 8 4 1 1 4 4 3 7 10 9 8 11 8 10
114 110 97 88 82 83 77 68 58 52 50 43 38 40 40 34 26 32 34 9 7 5 9 5 7 9 8 6 3 4 5 2 5 9 2 6 9 2 1 4 6 3 9 8 9 5 14
125 122 113 100 92 88 85 75 63 56 51 45 39 38 38 37 32 39 24 6 16 13 13 17 9 9 3 4 7 6 7 5 3 5 11 5 2 4 7 4 5 5 3 4 5 1 7
135 132 128 116 103 95 91 81 72 62 56 51 44 35 34 39 39 42 7 10 7 6 14 5 9 5 11 7 9 9 10 1 8 4 3 5 3 2 2 4 3 5 1 7 6 4 9
88 147 138 132 117 106 99 94 81 70 64 48 43 23 30 39 43 24 8 12 6 9 10 10 8 7 7 13 13 8 12 1 6 6 7 6 7 4 2 6 10 6 4 2 5 7 8
64 91 148 141 131 121 107 104 92 78 72 59 45 8 37 50 13 7 7 11 13 9 6 4 6 8 9 8 8 10 14 2 11 16 13 1 8 4 13 2 8 7 9 10 7 11 9
73 84 121 154 144 132 118 116 102 90 89 81 43 15 45 58 10 7 1 7 7 9 9 9 5 6 4 11 7 5 8 6 10 5 10 9 1 5 16 9 8 5 7 6 5 4 14
81 67 85 160 152 139 128 127 110 102 97 85 32 7 14 30 10 12 12 8 10 7 10 10 9 9 9 6 8 8 6 4 6 7 8 8 5 13 12 11 7 7 3 3 10 4 14
71 72 92 155 147 148 137 131 114 107 104 85 34 14 27 14 19 7 14 19 14 14 6 15 3 8 13 8 6 6 5 5 8 7 5 8 10 6 10 11 5 10 16 15 15 21 10
47 31 50 133 147 149 131 124 114 109 107 82 34 17 19 16 45 22 18 17 23 10 17 11 9 19 10 13 15 18 16 8 9 3 5 6 3 5 9 9 3 8 18 23 24 19 16
59 70 32 94 138 117 105 122 121 113 114 65 47 32 46 27 21 22 15 15 21 30 11 11 24 13 12 13 17 22 17 24 28 15 7 9 9 6 11 8 6 13 11 9 9 9 12
62 59 68 36 108 110 120 124 121 115 123 75 83 54 19 7 16 24 16 16 27 21 19 12 36 14 25 51 51 43 44 40 33 28 10 10 9 6 8 8 5 10 7 12 15 7 4
79 64 55 61 60 117 123 123 123 119 123 95 84 73 28 8 19 12 23 17 43 27 12 15 10 16 65 34 9 10 9 11 10 12 11 7 8 1 6 6 15 12 2 6 7 7 3
71 70 71 68 57 70 123 134 121 129 119 122 84 85 39 27 25 29 27 52 12 9 7 8 29 69 32 9 7 11 10 10 5 10 19 8 10 7 6 9 12 9 7 8 7 8 8
58 57 51 86 84 66 88 145 128 122 129 127 94 96 65 15 38 53 14 34 29 18 9 16 25 17 8 5 6 6 8 6 8 16 10 6 4 10 5 6 16 14 3 4 9 8 4
33 39 23 49 72 77 83 124 135 128 138 130 92 96 83 24 43 41 37 46 40 38 12 34 15 4 5 5 7 8 7 12 6 9 14 15 15 9 5 5 17 14 2 13 5 1 6
27 25 33 35 40 66 51 64 152 153 149 130 77 89 82 23 25 37 48 50 52 48 39 58 11 25 29 7 2 7 5 3 9 7 6 3 13 11 18 13 9 12 8 12 8 12 15
Wind_Direction_500mb
252 252 248 221 205 212 215 230 288 323 341 352 3 15 344 348 353 20 38 42 51 48 69 91 127 139 127 77 91 92 77 77 67 76 72 90 67 39 54 67 26 45 354 348 331 300 282
242 251 240 220 214 216 214 222 236 228 234 311 315 345 338 335 3 20 30 25 38 55 85 113 133 145 135 81 98 82 65 48 62 67 68 96 85 77 63 71 77 302 319 296 288 266 270
233 245 244 218 219 219 217 221 223 222 214 229 261 279 293 287 267 44 7 16 22 81 108 119 132 134 87 112 92 66 71 65 78 94 45 89 101 69 75 68 350 304 327 319 260 227 216
233 239 241 224 221 225 219 225 224 226 230 231 257 258 233 234 272 299 124 107 119 118 128 136 141 135 88 114 110 113 81 48 74 78 67 75 101 85 53 336 315 319 31 358 329 125 118
244 241 238 232 225 225 225 222 227 227 225 232 243 249 252 227 214 207 212 154 143 128 129 137 128 108 68 120 79 96 109 67 50 64 81 86 85 76 34 52 17 9 313 275 328 166 141
251 248 242 238 231 231 227 222 219 222 223 223 229 217 216 219 225 198 168 153 148 134 120 124 112 99 122 169 80 73 93 96 83 78 63 51 46 55 23 59 198 353 3 337 318 315 273
248 254 246 238 235 236 233 224 220 219 220 222 221 210 208 211 205 192 177 147 131 76 74 73 79 101 139 115 89 63 86 79 70 45 67 34 64 57 68 85 93 60 19 265 262 278 308
248 248 251 248 240 238 237 226 219 216 218 217 213 205 203 198 198 201 195 193 201 143 103 92 116 123 147 129 87 52 91 35 34 68 65 26 90 318 103 73 64 27 320 302 297 336 349
248 245 245 249 246 237 235 230 222 220 223 214 214 209 201 198 200 200 207 193 178 149 77 72 124 126 138 135 71 88 86 61 53 44 144 137 355 82 62 8 22 321 289 312 273 333 325
245 244 243 245 246 242 236 229 225 223 221 219 211 203 200 193 201 199 205 192 174 161 74 187 206 40 141 133 81 141 134 54 54 108 54 126 86 59 22 321 153 313 345 352 352 22 300
243 243 242 242 246 239 237 233 233 225 221 215 212 204 197 189 191 182 179 169 165 155 13 139 138 151 152 115 131 40 124 93 49 43 86 188 108 76 30 347 46 212 322 288 255 298 9
241 241 240 241 242 238 235 232 236 231 223 212 211 203 200 198 196 185 165 156 141 47 262 136 124 144 108 102 82 107 84 46 64 33 12 223 126 113 41 37 28 332 335 320 63 82 32
240 240 238 240 240 237 231 229 233 233 222 211 213 200 199 198 194 179 162 151 48 140 353 242 169 152 179 157 122 165 138 163 137 82 358 97 120 96 42 54 13 45 43 343 358 4 228
239 239 237 236 238 236 228 224 228 232 214 209 206 200 199 197 184 174 163 59 117 217 207 199 127 127 150 137 103 143 114 290 230 95 78 133 329 14 312 80 167 201 133 149 235 276 279
238 238 236 234 234 232 226 220 225 225 207 202 196 193 194 191 184 173 170 91 204 201 157 146 68 101 228 113 124 118 207 173 77 104 156 149 230 334 48 358 86 306 97 189 109 334 22
237 236 235 232 231 229 224 216 218 220 202 199 193 182 189 186 177 172 108 231 200 157 125 131 143 143 163 202 141 159 198 235 147 76 112 178 58 260 305 340 9 108 267 34 3 346 297
232 236 235 231 226 226 221 213 212 211 198 193 182 165 186 176 168 175 173 214 181 157 150 146 175 127 143 167 164 189 189 322 129 137 81 125 117 285 57 206 175 33 25 10 179 171 205
255 224 234 234 226 222 215 208 206 204 193 183 171 149 171 165 155 185 166 176 150 153 131 134 109 111 145 155 139 191 196 110 156 145 144 108 138 175 228 48 89 109 164 157 145 256 229
249 273 226 233 228 219 209 206 201 198 193 171 157 122 167 175 168 212 206 131 149 138 177 161 117 108 114 151 104 153 107 30 105 116 149 185 289 30 344 357 6 148 203 198 107 77 245
247 250 236 222 235 218 210 203 196 194 191 172 154 123 165 207 225 158 146 171 150 145 148 137 124 102 102 73 28 159 123 44 96 94 105 129 99 158 193 211 124 205 270 290 133 132 270
255 259 238 216 217 217 205 198 190 191 186 173 172 192 171 181 216 185 154 158 143 165 158 153 82 197 153 122 65 150 94 91 46 125 69 112 184 159 264 262 192 220 253 251 206 236 208
242 253 220 215 206 200 197 194 191 190 187 179 172 154 153 153 164 157 188 203 166 167 149 200 172 185 146 153 182 188 138 176 182 101 106 14 226 84 299 304 100 259 249 248 253 258 259
234 229 255 197 192 197 200 199 192 190 186 184 195 175 163 154 142 174 201 170 176 135 195 196 174 126 155 171 127 130 125 144 150 141 141 123 123 81 269 331 322 316 233 198 216 206 180
228 222 231 217 201 206 203 197 196 195 192 186 192 176 141 165 166 194 170 152 165 171 140 156 163 121 147 131 109 97 84 79 81 54 113 131 104 103 250 355 340 247 201 201 229 235 196
212 211 205 217 202 204 207 205 202 205 198 192 188 184 175 124 167 159 164 138 123 112 89 117 137 165 147 135 77 55 358 29 347 26 11 66 116 152 156 189 299 275 97 117 138 250 354
206 209 198 202 205 206 204 206 206 210 205 199 197 189 186 125 206 159 146 153 138 114 48 101 128 148 160 105 92 145 179 186 264 351 11 55 66 124 68 142 230 239 341 126 128 262 43
183 198 194 207 204 210 213 204 206 211 208 202 196 196 191 144 154 162 154 173 144 130 108 135 146 166 163 98 102 145 207 174 162 166 179 92 21 182 197 209 284 241 209 154 98 265 60
174 187 184 190 200 201 206 203 206 209 207 197 198 190 185 166 166 178 168 160 157 156 143 155 111 211 79 119 130 197 128 213 113 165 174 162 151 196 96 120 276 173 78 160 174 114 320
210 217 183 187 206 200 192 214 204 208 203 192 185 189 188 154 165 180 185 183 182 170 140 166 166 154 166 119 140 99 98 111 152 215 145 202 185 182 183 210 154 165 189 198 254 286 299
Wind_Speed_850mb
32 27 23 17 16 14 8 4 4 3 3 3 3 3 5 4 4 3 4 5 6 6 7 7 7 13 9 11 10 7 5 4 5 10 13 14 17 8 7 7 7 2 10 13 12 16 13
36 32 24 19 19 15 11 8 6 4 2 2 3 2 2 2 2 2 4 5 5 4 4 7 8 8 8 8 7 5 4 3 5 8 6 6 7 9 7 6 6 7 15 27 19 19 10
40 38 31 25 24 21 16 13 11 8 6 4 3 2 1 2 0 1 3 4 4 3 4 8 10 10 9 10 10 6 6 7 7 3 6 7 10 6 4 4 6 8 9 14 17 18 6
40 41 34 29 27 26 22 17 13 11 9 6 4 3 2 2 1 1 1 1 2 4 7 9 11 4 9 8 7 6 8 8 8 8 7 8 8 8 5 5 6 5 6 10 10 17 4
38 43 39 35 31 31 26 20 17 15 11 8 6 5 3 3 3 3 2 3 4 6 7 9 9 8 7 6 3 6 3 6 10 10 11 10 5 6 5 6 9 9 3 4 10 1 5
41 41 40 37 31 36 32 26 23 19 15 11 9 8 6 4 3 3 4 5 5 7 10 11 13 5 8 3 3 7 8 7 10 11 10 9 6 6 8 9 3 2 5 9 8 7 6
48 46 44 40 39 39 39 31 26 22 19 16 13 11 8 7 6 6 8 9 5 6 6 9 8 14 10 9 6 6 8 12 10 6 5 8 11 5 6 5 5 3 3 6 11 16 10
54 52 50 45 45 43 41 37 33 29 26 20 17 15 13 11 10 10 11 5 4 8 13 10 13 14 12 8 5 8 5 6 4 5 4 10 5 1 0 6 9 7 7 11 14 9 13
60 59 56 54 51 47 43 40 36 33 29 25 21 18 15 13 11 11 12 6 7 12 7 4 10 8 8 8 7 4 3 3 5 3 5 7 2 6 6 6 7 6 6 9 10 11 10
66 66 62 60 59 55 48 42 39 37 34 29 27 23 20 16 12 14 11 11 14 12 7 2 3 2 7 11 5 2 5 4 2 3 4 3 5 5 7 3 2 4 8 8 11 12 3
75 72 72 67 65 64 59 45 39 43 41 35 31 26 26 26 12 19 10 15 16 7 6 6 5 6 9 6 13 7 7 4 4 2 8 4 5 6 4 5 4 4 6 8 5 4 8
89 80 78 75 72 68 66 53 45 43 47 40 35 30 29 28 18 15 17 20 17 11 11 3 7 6 5 2 4 7 5 4 5 6 3 5 6 5 2 4 4 7 6 10 2 4 6
103 94 85 81 76 75 70 61 51 47 49 41 37 36 35 32 22 22 25 22 10 7 7 6 7 9 5 6 5 5 6 1 6 8 4 1 1 4 4 3 7 10 9 8 11 8 10
114 110 97 88 82 83 77 68 58 52 50 43 38 40 40 34 26 32 34 9 7 5 9 5 7 9 8 6 3 4 5 2 5 9 2 6 9 2 1 4 6 3 9 8 9 5 14
125 122 113 100 92 88 85 75 63 56 51 45 39 38 38 37 32 39 24 6 16 13 13 17 9 9 3 4 7 6 7 5 3 5 11 5 2 4 7 4 5 5 3 4 5 1 7
135 132 128 116 103 95 91 81 72 62 56 51 44 35 34 39 39 42 7 10 7 6 14 5 9 5 11 7 9 9 10 1 8 4 3 5 3 2 2 4 3 5 1 7 6 4 9
88 147 138 132 117 106 99 94 81 70 64 48 43 23 30 39 43 24 8 12 6 9 10 10 8 7 7 13 13 8 12 1 6 6 7 6 7 4 2 6 10 6 4 2 5 7 8
64 91 148 141 131 121 107 104 92 78 72 59 45 8 37 50 13 7 7 11 13 9 6 4 6 8 9 8 8 10 14 2 11 16 13 1 8 4 13 2 8 7 9 10 7 11 9
73 84 121 154 144 132 118 116 102 90 89 81 43 15 45 58 10 7 1 7 7 9 9 9 5 6 4 11 7 5 8 6 10 5 10 9 1 5 16 9 8 5 7 6 5 4 14
81 67 85 160 152 139 128 127 110 102 97 85 32 7 14 30 10 12 12 8 10 7 10 10 9 9 9 6 8 8 6 4 6 7 8 8 5 13 12 11 7 7 3 3 10 4 14
71 72 92 155 147 148 137 131 114 107 104 85 34 14 27 14 19 7 14 19 14 14 6 15 3 8 13 8 6 6 5 5 8 7 5 8 10 6 10 11 5 10 16 15 15 21 10
47 31 50 133 147 149 131 124 114 109 107 82 34 17 19 16 45 22 18 17 23 10 17 11 9 19 10 13 15 18 16 8 9 3 5 6 3 5 9 9 3 8 18 23 24 19 16
59 70 32 94 138 117 105 122 121 113 114 65 47 32 46 27 21 22 15 15 21 30 11 11 24 13 12 13 17 22 17 24 28 15 7 9 9 6 11 8 6 13 11 9 9 9 12
62 59 68 36 108 110 120 124 121 115 123 75 83 54 19 7 16 24 16 16 27 21 19 12 36 14 25 51 51 43 44 40 33 28 10 10 9 6 8 8 5 10 7 12 15 7 4
79 64 55 61 60 117 123 123 123 119 123 95 84 73 28 8 19 12 23 17 43 27 12 15 10 16 65 34 9 10 9 11 10 12 11 7 8 1 6 6 15 12 2 6 7 7 3
71 70 71 68 57 70 123 134 121 129 119 122 84 85 39 27 25 29 27 52 12 9 7 8 29 69 32 9 7 11 10 10 5 10 19 8 10 7 6 9 12 9 7 8 7 8 8
58 57 51 86 84 66 88 145 128 122 129 127 94 96 65 15 38 53 14 34 29 18 9 16 25 17 8 5 6 6 8 6 8 16 10 6 4 10 5 6 16 14 3 4 9 8 4
33 39 23 49 72 77 83 124 135 128 138 130 92 96 83 24 43 41 37 46 40 38 12 34 15 4 5 5 7 8 7 12 6 9 14 15 15 9 5 5 17 14 2 13 5 1 6
27 25 33 35 40 66 51 64 152 153 149 130 77 89 82 23 25 37 48 50 52 48 39 58 11 25 29 7 2 7 5 3 9 7 6 3 13 11 18 13 9 12 8 12 8 12 15
Wind_Direction_850mb
252 252 248 221 205 212 215 230 288 323 341 352 3 15 344 348 353 20 38 42 51 48 69 91 127 139 127 77 91 92 77 77 67 76 72 90 67 39 54 67 26 45 354 348 331 300 282
242 251 240 220 214 216 214 222 236 228 234 311 315 345 338 335 3 20 30 25 38 55 85 113 133 145 135 81 98 82 65 48 62 67 68 96 85 77 63 71 77 302 319 296 288 266 270
233 245 244 218 219 219 217 221 223 222 214 229 261 279 293 287 267 44 7 16 22 81 108 119 132 134 87 112 92 66 71 65 78 94 45 89 101 69 75 68 350 304 327 319 260 227 216
233 239 241 224 221 225 219 225 224 226 230 231 257 258 233 234 272 299 124 107 119 118 128 136 141 135 88 114 110 113 81 48 74 78 67 75 101 85 53 336 315 319 31 358 329 125 118
244 241 238 232 225 225 225 222 227 227 225 232 243 249 252 227 214 207 212 154 143 128 129 137 128 108 68 120 79 96 109 67 50 64 81 86 85 76 34 52 17 9 313 275 328 166 141
251 248 242 238 231 231 227 222 219 222 223 223 229 217 216 219 225 198 168 153 148 134 120 124 112 99 122 169 80 73 93 96 83 78 63 51 46 55 23 59 198 353 3 337 318 315 273
248 254 246 238 235 236 233 224 220 219 220 222 221 210 208 211 205 192 177 147 131 76 74 73 79 101 139 115 89 63 86 79 70 45 67 34 64 57 68 85 93 60 19 265 262 278 308
248 248 251 248 240 238 237 226 219 216 218 217 213 205 203 198 198 201 195 193 201 143 103 92 116 123 147 129 87 52 91 35 34 68 65 26 90 318 103 73 64 27 320 302 297 336 349
248 245 245 249 246 237 235 230 222 220 223 214 214 209 201 198 200 200 207 193 178 149 77 72 124 126 138 135 71 88 86 61 53 44 144 137 355 82 62 8 22 321 289 312 273 333 325
245 244 243 245 246 242 236 229 225 223 221 219 211 203 200 193 201 199 205 192 174 161 74 187 206 40 141 133 81 141 134 54 54 108 54 126 86 59 22 321 153 313 345 352 352 22 300
243 243 242 242 246 239 237 233 233 225 221 215 212 204 197 189 191 182 179 169 165 155 13 139 138 151 152 115 131 40 124 93 49 43 86 188 108 76 30 347 46 212 322 288 255 298 9
241 241 240 241 242 238 235 232 236 231 223 212 211 203 200 198 196 185 165 156 141 47 262 136 124 144 108 102 82 107 84 46 64 33 12 223 126 113 41 37 28 332 335 320 63 82 32
240 240 238 240 240 237 231 229 233 233 222 211 213 200 199 198 194 179 162 151 48 140 353 242 169 152 179 157 122 165 138 163 137 82 358 97 120 96 42 54 13 45 43 343 358 4 228
239 239 237 236 238 236 228 224 228 232 214 209 206 200 199 197 184 174 163 59 117 217 207 199 127 127 150 137 103 143 114 290 230 95 78 133 329 14 312 80 167 201 133 149 235 276 279
238 238 236 234 234 232 226 220 225 225 207 202 196 193 194 191 184 173 170 91 204 201 157 146 68 101 228 113 124 118 207 173 77 104 156 149 230 334 48 358 86 306 97 189 109 334 22
237 236 235 232 231 229 224 216 218 220 202 199 193 182 189 186 177 172 108 231 200 157 125 131 143 143 163 202 141 159 198 235 147 76 112 178 58 260 305 340 9 108 267 34 3 346 297
232 236 235 231 226 226 221 213 212 211 198 193 182 165 186 176 168 175 173 214 181 157 150 146 175 127 143 167 164 189 189 322 129 137 81 125 117 285 57 206 175 33 25 10 179 171 205
255 224 234 234 226 222 215 208 206 204 193 183 171 149 171 165 155 185 166 176 150 153 131 134 109 111 145 155 139 191 196 110 156 145 144 108 138 175 228 48 89 109 164 157 145 256 229
249 273 226 233 228 219 209 206 201 198 193 171 157 122 167 175 168 212 206 131 149 138 177 161 117 108 114 151 104 153 107 30 105 116 149 185 289 30 344 357 6 148 203 198 107 77 245
247 250 236 222 235 218 210 203 196 194 191 172 154 123 165 207 225 158 146 171 150 145 148 137 124 102 102 73 28 159 123 44 96 94 105 129 99 158 193 211 124 205 270 290 133 132 270
255 259 238 216 217 217 205 198 190 191 186 173 172 192 171 181 216 185 154 158 143 165 158 153 82 197 153 122 65 150 94 91 46 125 69 112 184 159 264 262 192 220 253 251 206 236 208
242 253 220 215 206 200 197 194 191 190 187 179 172 154 153 153 164 157 188 203 166 167 149 200 172 185 146 153 182 188 138 176 182 101 106 14 226 84 299 304 100 259 249 248 253 258 259
234 229 255 197 192 197 200 199 192 190 186 184 195 175 163 154 142 174 201 170 176 135 195 196 174 126 155 171 127 130 125 144 150 141 141 123 123 81 269 331 322 316 233 198 216 206 180
228 222 231 217 201 206 203 197 196 195 192 186 192 176 141 165 166 194 170 152 165 171 140 156 163 121 147 131 109 97 84 79 81 54 113 131 104 103 250 355 340 247 201 201 229 235 196
212 211 205 217 202 204 207 205 202 205 198 192 188 184 175 124 167 159 164 138 123 112 89 117 137 165 147 135 77 55 358 29 347 26 11 66 116 152 156 189 299 275 97 117 138 250 354
206 209 198 202 205 206 204 206 206 210 205 199 197 189 186 125 206 159 146 153 138 114 48 101 128 148 160 105 92 145 179 186 264 351 11 55 66 124 68 142 230 239 341 126 128 262 43
183 198 194 207 204 210 213 204 206 211 208 202 196 196 191 144 154 162 154 173 144 130 108 135 146 166 163 98 102 145 207 174 162 166 179 92 21 182 197 209 284 241 209 154 98 265 60
174 187 184 190 200 201 206 203 206 209 207 197 198 190 185 166 166 178 168 160 157 156 143 155 111 211 79 119 130 197 128 213 113 165 174 162 151 196 96 120 276 173 78 160 174 114 320
210 217 183 187 206 200 192 214 204 208 203 192 185 189 188 154 165 180 185 183 182 170 140 166 166 154 166 119 140 99 98 111 152 215 145 202 185 182 183 210 154 165 189 198 254 286 299